• în Republica Moldova
  • Lista ţărilor
  • Pe 7 zile
  • Temperatura apei
  • Hartă satelitară
  • Meteo pe hartă
  • Widget-uri
  • user-avatar
    Intrare

    Meteo pe oră la Fier

    Astăzi, 21 Februarie, Marţi

    Timp Temperatura Precipitaţii Vânt Presiune Umiditate
    00:00 +5°C° 0 mm 2 m/s 764 mmHg 83%
    01:00 +5°C° 0 mm 2 m/s 764 mmHg 83%
    02:00 +5°C° 0 mm 2 m/s 764 mmHg 83%
    03:00 +5°C° 0 mm 2 m/s 764 mmHg 82%
    04:00 +4°C° 0 mm 3 m/s 764 mmHg 82%
    05:00 +4°C° 0 mm 3 m/s 764 mmHg 81%
    06:00 +4°C° 0 mm 3 m/s 764 mmHg 80%
    07:00 +5°C° 0 mm 2 m/s 764 mmHg 79%
    08:00 +7°C° 0 mm 3 m/s 764 mmHg 70%
    09:00 +9°C° 0 mm 3 m/s 763 mmHg 62%
    10:00 +11°C° 0 mm 3 m/s 763 mmHg 53%
    11:00 +12°C° 0 mm 3 m/s 763 mmHg 50%
    12:00 +12°C° 0 mm 4 m/s 763 mmHg 48%
    13:00 +13°C° 0 mm 4 m/s 763 mmHg 45%
    14:00 +12°C° 0 mm 4 m/s 763 mmHg 49%
    15:00 +12°C° 0 mm 4 m/s 762 mmHg 53%
    16:00 +11°C° 0 mm 4 m/s 762 mmHg 57%
    17:00 +9°C° 0 mm 3 m/s 763 mmHg 64%
    18:00 +8°C° 0 mm 3 m/s 763 mmHg 71%
    19:00 +6°C° 0 mm 2 m/s 763 mmHg 78%
    20:00 +6°C° 0 mm 2 m/s 763 mmHg 76%
    21:00 +6°C° 0 mm 2 m/s 763 mmHg 74%
    22:00 +6°C° 0 mm 2 m/s 763 mmHg 72%
    23:00 +6°C° 0 mm 2 m/s 764 mmHg 70%

    Mâine, 22 Februarie, Miercuri

    Timp Temperatura Precipitaţii Vânt Presiune Umiditate
    00:00 +5°C° 0 mm 2 m/s 764 mmHg 69%
    01:00 +5°C° 0 mm 2 m/s 764 mmHg 67%
    02:00 +5°C° 0 mm 2 m/s 764 mmHg 68%
    03:00 +5°C° 0 mm 2 m/s 764 mmHg 70%
    04:00 +6°C° 0 mm 1 m/s 764 mmHg 71%
    05:00 +6°C° 0 mm 1 m/s 764 mmHg 72%
    06:00 +7°C° 0 mm 1 m/s 764 mmHg 72%
    07:00 +7°C° 0 mm 1 m/s 764 mmHg 73%
    08:00 +9°C° 0 mm 1 m/s 764 mmHg 66%
    09:00 +12°C° 0 mm 1 m/s 764 mmHg 60%
    10:00 +14°C° 0 mm 1 m/s 764 mmHg 53%
    11:00 +15°C° 0 mm 1 m/s 764 mmHg 53%
    12:00 +16°C° 0 mm 1 m/s 764 mmHg 53%
    13:00 +16°C° 0 mm 1 m/s 763 mmHg 53%
    14:00 +16°C° 0 mm 1 m/s 763 mmHg 57%
    15:00 +15°C° 0 mm 1 m/s 763 mmHg 61%
    16:00 +15°C° 0 mm 1 m/s 763 mmHg 65%
    17:00 +13°C° 0 mm 1 m/s 763 mmHg 72%
    18:00 +11°C° 0 mm 1 m/s 763 mmHg 80%
    19:00 +9°C° 0 mm 1 m/s 764 mmHg 88%
    20:00 +9°C° 0 mm 1 m/s 764 mmHg 88%
    21:00 +8°C° 0 mm 2 m/s 764 mmHg 88%
    22:00 +8°C° 0 mm 2 m/s 764 mmHg 88%
    23:00 +8°C° 0 mm 2 m/s 764 mmHg 89%

    Poimâine, 23 Februarie, Joi

    Timp Temperatura Precipitaţii Vânt Presiune Umiditate
    00:00 +8°C° 0 mm 2 m/s 764 mmHg 89%
    01:00 +8°C° 0 mm 3 m/s 764 mmHg 90%
    02:00 +7°C° 0 mm 3 m/s 764 mmHg 90%
    03:00 +7°C° 0 mm 3 m/s 764 mmHg 89%
    04:00 +7°C° 0 mm 3 m/s 763 mmHg 89%
    05:00 +7°C° 0 mm 3 m/s 763 mmHg 88%
    06:00 +7°C° 0 mm 3 m/s 763 mmHg 87%
    07:00 +7°C° 0 mm 3 m/s 764 mmHg 86%
    08:00 +10°C° 0 mm 3 m/s 764 mmHg 77%
    09:00 +12°C° 0 mm 3 m/s 764 mmHg 67%
    10:00 +14°C° 0 mm 3 m/s 764 mmHg 58%
    11:00 +16°C° 0 mm 3 m/s 763 mmHg 55%
    12:00 +16°C° 0 mm 3 m/s 763 mmHg 52%
    13:00 +17°C° 0 mm 4 m/s 763 mmHg 50%
    14:00 +17°C° 0 mm 4 m/s 762 mmHg 54%
    15:00 +15°C° 0 mm 4 m/s 762 mmHg 58%
    16:00 +15°C° 0 mm 4 m/s 762 mmHg 62%
    17:00 +13°C° 0 mm 4 m/s 762 mmHg 70%
    18:00 +12°C° 0 mm 4 m/s 762 mmHg 78%
    19:00 +10°C° 0 mm 4 m/s 763 mmHg 85%
    20:00 +10°C° 0 mm 4 m/s 763 mmHg 86%
    21:00 +10°C° 0 mm 4 m/s 763 mmHg 88%
    22:00 +8°C° 0 mm 4 m/s 763 mmHg 89%
    23:00 +8°C° 0 mm 4 m/s 763 mmHg 89%

    24 Februarie, Vineri

    Timp Temperatura Precipitaţii Vânt Presiune Umiditate
    00:00 +8°C° 0 mm 5 m/s 762 mmHg 90%
    01:00 +8°C° 0 mm 5 m/s 762 mmHg 90%
    02:00 +8°C° 0 mm 5 m/s 762 mmHg 90%
    03:00 +8°C° 0 mm 5 m/s 761 mmHg 90%
    04:00 +8°C° 0 mm 5 m/s 761 mmHg 90%
    05:00 +8°C° 0 mm 5 m/s 761 mmHg 89%
    06:00 +8°C° 0 mm 5 m/s 761 mmHg 89%
    07:00 +8°C° 0 mm 6 m/s 761 mmHg 88%
    08:00 +10°C° 0 mm 6 m/s 761 mmHg 81%
    09:00 +12°C° 0 mm 7 m/s 761 mmHg 74%
    10:00 +15°C° 0 mm 7 m/s 761 mmHg 67%
    11:00 +16°C° 0 mm 8 m/s 760 mmHg 65%
    12:00 +17°C° 0 mm 8 m/s 759 mmHg 63%
    13:00 +18°C° 0 mm 8 m/s 759 mmHg 60%
    14:00 +17°C° 0,1 mm 8 m/s 758 mmHg 66%
    15:00 +16°C° 0,1 mm 8 m/s 758 mmHg 71%
    16:00 +15°C° 0,1 mm 8 m/s 757 mmHg 77%
    17:00 +13°C° 0,5 mm 8 m/s 757 mmHg 79%
    18:00 +13°C° 0,5 mm 9 m/s 756 mmHg 82%
    19:00 +12°C° 0,5 mm 9 m/s 756 mmHg 85%
    20:00 +12°C° 0,8 mm 9 m/s 756 mmHg 85%
    21:00 +12°C° 0,8 mm 10 m/s 755 mmHg 85%
    22:00 +12°C° 0,8 mm 10 m/s 754 mmHg 86%
    23:00 +12°C° 0,8 mm 10 m/s 754 mmHg 87%

    25 Februarie, Sâmbătă

    Timp Temperatura Precipitaţii Vânt Presiune Umiditate
    00:00 +12°C° 0,8 mm 10 m/s 753 mmHg 89%
    01:00 +12°C° 0,8 mm 10 m/s 753 mmHg 91%
    02:00 +12°C° 0,8 mm 9 m/s 753 mmHg 92%
    03:00 +12°C° 0,8 mm 7 m/s 753 mmHg 93%
    04:00 +13°C° 0,8 mm 6 m/s 753 mmHg 94%
    05:00 +13°C° 0,5 mm 6 m/s 754 mmHg 93%
    06:00 +13°C° 0,5 mm 6 m/s 755 mmHg 92%
    07:00 +13°C° 0,5 mm 5 m/s 756 mmHg 92%
    08:00 +13°C° 0,1 mm 5 m/s 757 mmHg 86%
    09:00 +14°C° 0,1 mm 6 m/s 758 mmHg 81%
    10:00 +14°C° 0,1 mm 6 m/s 759 mmHg 76%
    11:00 +14°C° 0 mm 6 m/s 759 mmHg 72%
    12:00 +14°C° 0 mm 6 m/s 760 mmHg 68%
    13:00 +14°C° 0 mm 7 m/s 760 mmHg 64%
    14:00 +12°C° 0 mm 7 m/s 761 mmHg 63%
    15:00 +12°C° 0 mm 7 m/s 761 mmHg 62%
    16:00 +12°C° 0 mm 7 m/s 762 mmHg 62%
    17:00 +10°C° 0 mm 6 m/s 762 mmHg 67%
    18:00 +9°C° 0 mm 6 m/s 763 mmHg 72%
    19:00 +8°C° 0 mm 6 m/s 764 mmHg 76%
    20:00 +8°C° 0 mm 6 m/s 765 mmHg 77%
    21:00 +7°C° 0 mm 5 m/s 765 mmHg 77%
    22:00 +7°C° 0 mm 5 m/s 766 mmHg 78%
    23:00 +6°C° 0 mm 5 m/s 766 mmHg 77%

    26 Februarie, Duminică

    Timp Temperatura Precipitaţii Vânt Presiune Umiditate
    00:00 +6°C° 0 mm 4 m/s 766 mmHg 77%
    01:00 +6°C° 0 mm 4 m/s 766 mmHg 77%
    02:00 +5°C° 0 mm 3 m/s 766 mmHg 74%
    03:00 +5°C° 0 mm 3 m/s 766 mmHg 72%
    04:00 +5°C° 0 mm 3 m/s 766 mmHg 70%
    05:00 +5°C° 0 mm 3 m/s 766 mmHg 66%
    06:00 +6°C° 0 mm 2 m/s 766 mmHg 62%
    07:00 +7°C° 0 mm 2 m/s 767 mmHg 58%
    08:00 +9°C° 0 mm 2 m/s 767 mmHg 51%
    09:00 +13°C° 0 mm 1 m/s 767 mmHg 43%
    10:00 +15°C° 0 mm 1 m/s 767 mmHg 36%
    11:00 +16°C° 0 mm 1 m/s 766 mmHg 36%
    12:00 +16°C° 0 mm 2 m/s 766 mmHg 35%
    13:00 +17°C° 0 mm 2 m/s 766 mmHg 35%
    14:00 +17°C° 0 mm 2 m/s 766 mmHg 40%
    15:00 +16°C° 0 mm 2 m/s 765 mmHg 45%
    16:00 +16°C° 0 mm 2 m/s 765 mmHg 50%
    17:00 +14°C° 0 mm 2 m/s 765 mmHg 56%
    18:00 +12°C° 0 mm 2 m/s 766 mmHg 62%
    19:00 +10°C° 0 mm 1 m/s 766 mmHg 68%
    20:00 +10°C° 0 mm 1 m/s 766 mmHg 66%
    21:00 +9°C° 0 mm 1 m/s 766 mmHg 65%
    22:00 +9°C° 0 mm 1 m/s 766 mmHg 64%
    23:00 +9°C° 0 mm 1 m/s 766 mmHg 62%
    Arată mai mult